This is the latest recevied weather packets stored in our database for station/object OE-11204. If no packets are shown the sender has not sent any weather packets the latest 10 day(s).
| Time | Temp. | Humidity | Pressure | Rain* | Wind** | Luminosity | Snow |
|---|---|---|---|---|---|---|---|
| 1787985314 | 16.11° C | 85% | 1017.5 hPa | 0 mm | - | 186 W/m² | - |
| 1787984715 | 15.56° C | 88% | 1017.5 hPa | 0 mm | - | 155 W/m² | - |
| 1787983888 | 15.56° C | 88% | 1017.6 hPa | 0 mm | - | 149 W/m² | - |
| 1787982915 | 15° C | 91% | 1017.7 hPa | 0 mm | - | 50 W/m² | - |
| 1787982088 | 15.56° C | 89% | 1017.5 hPa | 0 mm | - | 56 W/m² | - |
| 1787981715 | 15° C | 91% | 1017.4 hPa | 0 mm | - | 43 W/m² | - |
| 1787981114 | 15° C | 90% | 1017.2 hPa | 0 mm | - | 25 W/m² | - |
| 1787980287 | 15° C | 91% | 1017.2 hPa | 0 mm | - | 19 W/m² | - |
| 1787979914 | 15° C | 89% | 1017 hPa | 0 mm | - | 6 W/m² | - |
| 1787979315 | 15° C | 90% | 1016.7 hPa | 0 mm | - | 6 W/m² | - |
| 1787978488 | 15° C | 87% | 1016.5 hPa | 0 mm | - | 0 W/m² | - |
| 1787978114 | 15.56° C | 89% | 1016.4 hPa | 0 mm | - | 0 W/m² | - |
| 1787977515 | 15.56° C | 87% | 1016.5 hPa | 0 mm | - | 0 W/m² | - |
| 1787976688 | 15.56° C | 89% | 1016.5 hPa | 0 mm | - | 0 W/m² | - |
| 1787976315 | 15.56° C | 92% | 1016.4 hPa | 0 mm | - | 0 W/m² | - |
| 1787975715 | 15.56° C | 91% | 1016.2 hPa | 0 mm | - | 0 W/m² | - |
| 1787975115 | 15.56° C | 91% | 1016.5 hPa | 0 mm | - | 0 W/m² | - |
| 1787974514 | 15.56° C | 90% | 1016.5 hPa | 0 mm | - | 0 W/m² | - |
| 1787973915 | 15.56° C | 89% | 1016.5 hPa | 0 mm | - | 0 W/m² | - |
| 1787973087 | 15.56° C | 89% | 1016.5 hPa | 0 mm | - | 0 W/m² | - |
| 1787972715 | 15.56° C | 90% | 1016.5 hPa | 0 mm | - | 0 W/m² | - |
| 1787972115 | 15.56° C | 91% | 1016.5 hPa | 0 mm | - | 0 W/m² | - |
| 1787971288 | 15.56° C | 90% | 1016.5 hPa | 0 mm | - | 0 W/m² | - |
| 1787970915 | 16.11° C | 84% | 1016.1 hPa | 0 mm | - | 0 W/m² | - |
| 1787970315 | 15.56° C | 92% | 1016.2 hPa | 0 mm | - | 0 W/m² | - |
* Rain latest hour (hover to see other rain measurements)
** Current wind speed in m/s (hover to see current wind gust speed)